Location: Andrest
(43.3200°N, 0.0641°E)
Time: 15:06:55
(UTC+00:00)

USA 267 - Pass Details

Date: 01 December 2020
Orbit: 1100 x 1107 km, 123.0° (Epoch: 18 January)

Event Time Altitude Azimuth Distance (km) Brightness Sun altitude
Exits shadow 17:34:03 16° 68° (ENE) 2,561 4.5 -12.3°
Maximum altitude 17:38:22 32° 15° (NNE) 1,807 4.1 -13.0°
Drops below altitude 10° 17:43:59 10° 316° (NW) 2,968 5.9 -14.0°
Sets 17:46:44 0° 307° (NW) 3,929 6.7 -14.5°
